Regional Weather Roundup
Issued by NWS Little Rock, AR

Home | Current Version | Previous Version | Graphics & Text | Print | Product List | Glossary On
Versions: 1 2 3 4 5 6 7 8 9 10 11 12 13 14 15 16 17 18 19 20 21 22 23 24 25 26 27 28 29 30 31 32
000
ASUS44 KLZK 271505
RWRLZK

WEATHER ROUNDUP FOR ARKANSAS
NATIONAL WEATHER SERVICE LITTLE ROCK AR
1000 AM CDT TUE JUN 27 2017

NOTE: "FAIR" INDICATES FEW OR NO CLOUDS BELOW 12,000 FEET WITH NO
SIGNIFICANT WEATHER AND/OR OBSTRUCTIONS TO VISIBILITY.

ARZ001-003-010-029-271600-
NORTHWEST ARKANSAS

CITY           SKY/WX    TMP DP  RH WIND       PRES   REMARKS
FAYETTEVILLE   SUNNY     76  63  64 SE5       30.12F
FORT SMITH     SUNNY     77  65  66 E8        30.09F
HARRISON       SUNNY     69  61  75 SE9       30.15F
BENTONVILLE    SUNNY     75  59  57 CALM      30.13F
ROGERS         SUNNY     76  62  62 SE7       30.12F
SILOAM SPGS    SUNNY     75  61  60 SW5       30.11F
HIGHFILL       MOSUNNY   75  62  64 S5        30.12F
SPRINGDALE     SUNNY     75  63  64 S5        30.14F
$$

ARZ004-005-016-271600-
NORTH CENTRAL ARKANSAS

CITY           SKY/WX    TMP DP  RH WIND       PRES   REMARKS
BATESVILLE     CLOUDY    72  61  68 E3        30.14F
FLIPPIN        SUNNY     72  57  60 S6        30.12F
$$

ARZ040-041-271600-
WEST CENTRAL ARKANSAS

CITY           SKY/WX    TMP DP  RH WIND       PRES   REMARKS
MENA           SUNNY     79  68  69 CALM      30.12S
MOUNT IDA      MOSUNNY   77  63  61 VRB5      30.08F
$$

ARZ009-017-025-026-028-271600-
NORTHEAST ARKANSAS

CITY           SKY/WX    TMP DP  RH WIND       PRES   REMARKS
JONESBORO      MOSUNNY   71  64  78 NE10      30.13F
WALNUT RIDGE   MOSUNNY   70  61  73 NE9       30.14F
BLYTHEVILLE    MOSUNNY   72  65  78 NE6       30.14F
$$

ARZ022-023-033-042-044-271600-
CENTRAL ARKANSAS

CITY           SKY/WX    TMP DP  RH WIND       PRES   REMARKS
LITTLE ROCK    MOSUNNY   74  66  76 E7        30.12F
N LITTLE ROCK    N/A     75  65  71 E7        30.11F
JACKSONVILLE   SUNNY     75  64  69 E6        30.11F
CONWAY           N/A     75  64  69 E5        30.10F
SEARCY         SUNNY     75  66  73 E7        30.14F
HOT SPRINGS    SUNNY     77  62  59 E6        30.11F
RUSSELLVILLE   SUNNY     74  63  68 VRB5      30.11F
CLINTON        FAIR      72  63  73 VRB3      30.13F
$$

ARZ036-271600-
EAST ARKANSAS

CITY           SKY/WX    TMP DP  RH WIND       PRES   REMARKS
WEST MEMPHIS   SUNNY     73  64  73 E9        30.11F
$$

ARZ050-053-066-070-073-271600-
SOUTHWEST ARKANSAS

CITY           SKY/WX    TMP DP  RH WIND       PRES   REMARKS
ARKADELPHIA    FAIR      77  66  68 NE3       30.10F
CAMDEN         SUNNY     81  66  61 N5        30.08S
TEXARKANA      SUNNY     79  66  64 E5        30.08S
EL DORADO      SUNNY     81  64  56 E3        30.08F
DE QUEEN       CLOUDY    75  68  78 VRB3      30.07S
$$

ARZ056-057-069-271600-
SOUTHEAST ARKANSAS

CITY           SKY/WX    TMP DP  RH WIND       PRES   REMARKS
PINE BLUFF     SUNNY     76  66  71 E6        30.11F
STUTTGART      SUNNY     75  55  50 E9        30.12S
MONTICELLO     SUNNY     79  67  66 VRB6      30.09S

$$






USA.gov is the U.S. government's official web portal to all federal, state and local government web resources and services.